Wichita Jabara, KS

7:03 PM CDT on July 25, 2017 (GMT -0500)
Col Jabara

Weather History for KAAO - December, 2012

Change the Weather History Date:

Sunday, December 9, 2012

  Actual Average (KIAB) Record (KIAB)
Temperature  
Mean Temperature 32 °F -  
Max Temperature 44 °F 45 °F 66 °F (2015)
Min Temperature 21 °F 27 °F 6 °F (2005)
Degree Days  
Heating Degree Days 32    
Moisture  
Dew Point 28 °F    
Average Humidity 72    
Maximum Humidity 96    
Minimum Humidity 43    
Precipitation  
Precipitation 0.00 in - - ()
Sea Level Pressure  
Sea Level Pressure 29.96 in    
Wind  
Wind Speed 9 mph (NNW)    
Max Wind Speed 25 mph    
Max Gust Speed 34 mph    
Visibility 7 miles    
Events      
Averages and records for this station are not official NWS values.
T = Trace of Precipitation, MM = Missing Value Source: NWS Daily Summary

Daily Weather History Graph

Daily Weather History Graph

Search for Another Location

Airport or City:

Trip Planner

Search our weather history database for the weather conditions in past years. The results will help you decide how hot, cold, wet, or windy it might be!

Date:

Astronomy

Dec. 09, 2012 Rise Set
Actual Time 7:32 AM CST 5:10 PM CST
Civil Twilight 7:03 AM CST 5:39 PM CST
Nautical Twilight 6:30 AM CST 6:12 PM CST
Astronomical Twilight 5:59 AM CST 6:43 PM CST
Moon 3:10 AM CST (12/9) 2:14 PM CST (12/9)
Length of Visible Light 10h 35m
Length of Day
9h 37m
Waning Crescent, 18% of the Moon is Illuminated
Dec 9
Waning Crescent
Dec 13
New
Dec 19
First Quarter
Dec 28
Full
Jan 4
Last Quarter

Hourly Weather History & Observations

Time (CST) Temp. Windchill Dew Point Humidity Pressure Visibility Wind Dir Wind Speed Gust Speed Precip Events Conditions
12:10 AM 42.8 °F - 41.0 °F 93% 29.84 in 3.0 mi Calm Calm - N/A   Overcast
12:25 AM 42.8 °F - 41.0 °F 93% 29.84 in 4.0 mi Calm Calm - N/A   Overcast
12:54 AM 43.0 °F 41.3 °F 41.0 °F 93% 29.85 in 3.0 mi NNE 3.5 mph - N/A   Overcast
1:01 AM 42.8 °F - 41.0 °F 93% 29.83 in 3.0 mi Calm Calm - N/A   Overcast
1:54 AM 42.1 °F - 41.0 °F 96% 29.84 in 3.0 mi Calm Calm - N/A   Overcast
2:26 AM 42.8 °F - 41.0 °F 93% 29.83 in 3.0 mi Calm Calm - N/A   Overcast
2:54 AM 42.1 °F - 41.0 °F 96% 29.85 in 4.0 mi Calm Calm - N/A   Overcast
3:08 AM 42.8 °F - 39.2 °F 87% 29.83 in 4.0 mi Calm Calm - N/A   Overcast
3:18 AM 42.8 °F 37.5 °F 41.0 °F 93% 29.84 in 4.0 mi NNW 9.2 mph - N/A   Overcast
3:26 AM 42.8 °F 38.6 °F 41.0 °F 93% 29.83 in 3.0 mi NNW 6.9 mph - N/A   Overcast
3:49 AM 42.8 °F 37.5 °F 41.0 °F 93% 29.83 in 2.5 mi NNW 9.2 mph - N/A   Overcast
3:54 AM 43.0 °F 37.7 °F 41.0 °F 93% 29.85 in 2.5 mi NNW 9.2 mph - N/A   Overcast
4:04 AM 42.8 °F 38.6 °F 41.0 °F 93% 29.83 in 3.0 mi NNW 6.9 mph - N/A   Overcast
4:54 AM 43.0 °F 36.4 °F 41.0 °F 93% 29.86 in 4.0 mi NNW 12.7 mph - N/A   Overcast
5:54 AM 43.0 °F 35.7 °F 39.9 °F 89% 29.88 in 5.0 mi NNW 15.0 mph 20.7 mph N/A   Overcast
6:14 AM 42.8 °F 36.6 °F 39.2 °F 87% 29.87 in 6.0 mi NNW 11.5 mph - N/A   Overcast
6:54 AM 41.0 °F 33.1 °F 37.0 °F 86% 29.90 in 9.0 mi NNW 15.0 mph - N/A   Overcast
7:54 AM 39.0 °F 29.6 °F 32.0 °F 76% 29.93 in 10.0 mi NNW 18.4 mph 25.3 mph N/A   Overcast
8:54 AM 39.9 °F 30.5 °F 30.0 °F 68% 29.94 in 10.0 mi North 19.6 mph 28.8 mph N/A   Overcast
9:54 AM 44.1 °F 35.0 °F 30.0 °F 58% 29.99 in 10.0 mi NNW 24.2 mph 31.1 mph N/A   Mostly Cloudy
10:54 AM 39.9 °F 29.5 °F 23.0 °F 51% 30.02 in 10.0 mi NNW 24.2 mph 27.6 mph N/A   Overcast
11:54 AM 37.9 °F 27.1 °F 19.9 °F 48% 30.02 in 10.0 mi NW 23.0 mph 34.5 mph N/A   Overcast
12:54 PM 36.0 °F 23.9 °F 16.0 °F 44% 30.02 in 10.0 mi NNW 25.3 mph 34.5 mph N/A   Overcast
1:54 PM 36.0 °F 24.2 °F 15.1 °F 43% 30.03 in 10.0 mi NW 24.2 mph 31.1 mph N/A   Overcast
2:54 PM 30.9 °F 17.8 °F 10.9 °F 43% 30.06 in 10.0 mi NNW 23.0 mph 27.6 mph N/A   Overcast
3:54 PM 28.0 °F 15.3 °F 9.0 °F 45% 30.10 in 10.0 mi NNW 18.4 mph 27.6 mph N/A   Overcast
4:54 PM 28.0 °F 14.6 °F 9.0 °F 45% 30.10 in 10.0 mi NNW 20.7 mph - N/A   Overcast
5:54 PM 27.0 °F 16.1 °F 8.1 °F 45% 30.13 in 10.0 mi NNW 12.7 mph 23.0 mph N/A   Overcast
6:54 PM 28.0 °F 14.3 °F 9.0 °F 45% 30.14 in 10.0 mi NNW 21.9 mph - N/A   Overcast
7:54 PM 27.0 °F 12.5 °F 9.0 °F 47% 30.15 in 10.0 mi NNW 23.0 mph 32.2 mph N/A   Clear
8:54 PM 25.0 °F 9.5 °F 8.1 °F 49% 30.17 in 10.0 mi NNW 24.2 mph 31.1 mph N/A   Clear
9:54 PM 23.0 °F 7.6 °F 8.1 °F 53% 30.20 in 10.0 mi NNW 21.9 mph 31.1 mph N/A   Mostly Cloudy
10:54 PM 21.0 °F 5.0 °F 8.1 °F 57% 30.19 in 10.0 mi NNW 21.9 mph 31.1 mph N/A   Scattered Clouds
11:54 PM 21.0 °F 4.6 °F 9.0 °F 60% 30.17 in 10.0 mi NNW 23.0 mph 29.9 mph N/A   Partly Cloudy